INTELSAT 22 (IS-22)

Last updated on Sat Apr 13 2024 01:02:38 GMT+0100 (British Summer Time)

1 38098U 12011A 24103.25674635 -.00000067 00000+0 00000+0 0 9993 2 38098 0.0143 147.8127 0001860 244.4090 333.2577 1.00271459 43822
UTC large
Height (km)
Speed (km/s)
/
Latitude / Longitude
Inclination (degrees)
Orbital Period (minutes)
Azimuth
Elevation
Range (km)
Doppler Factor

Next 0 passes for location: London (51.5072 / 0.1276)

Sorry there are no passes over London.